Philadelphia Wings Airport, PA

11:31 AM EDT on June 28, 2017 (GMT -0400)
Philadelphia Wings Airport

Weather History for KLOM - March, 2014

Change the Weather History Date:

Tuesday, March 25, 2014

  Actual Average (KPNE) Record (KPNE)
Temperature  
Mean Temperature 29 °F -  
Max Temperature 39 °F 53 °F 73 °F (2016)
Min Temperature 19 °F 35 °F 21 °F (2014)
Degree Days  
Heating Degree Days 36    
Moisture  
Dew Point 23 °F    
Average Humidity 76    
Maximum Humidity 100    
Minimum Humidity 45    
Precipitation  
Precipitation 0.01 in - - ()
Sea Level Pressure  
Sea Level Pressure 30.01 in    
Wind  
Wind Speed 1 mph (ESE)    
Max Wind Speed 12 mph    
Max Gust Speed -    
Visibility 8 miles    
Events      
Averages and records for this station are not official NWS values.
T = Trace of Precipitation, MM = Missing Value Source: NWS Daily Summary

Daily Weather History Graph

Daily Weather History Graph

Search for Another Location

Airport or City:

Trip Planner

Search our weather history database for the weather conditions in past years. The results will help you decide how hot, cold, wet, or windy it might be!

Date:

Astronomy

Mar. 25, 2014 Rise Set
Actual Time 6:56 AM EDT 7:18 PM EDT
Civil Twilight 6:29 AM EDT 7:45 PM EDT
Nautical Twilight 5:57 AM EDT 8:17 PM EDT
Astronomical Twilight 5:24 AM EDT 8:50 PM EDT
Moon 3:16 AM EDT (3/25) 1:46 PM EDT (3/25)
Length of Visible Light 13h 16m
Length of Day
12h 21m
Waning Crescent, 32% of the Moon is Illuminated
Mar 25
Waning Crescent
Mar 30
New
Apr 7
First Quarter
Apr 15
Full
Apr 22
Last Quarter

Hourly Weather History & Observations

Time (EDT) Temp. Windchill Dew Point Humidity Pressure Visibility Wind Dir Wind Speed Gust Speed Precip Events Conditions
12:15 AM 24.8 °F - 14.0 °F 64% 30.16 in 10.0 mi Calm Calm - N/A   Clear
12:35 AM 24.8 °F - 14.0 °F 64% 30.16 in 10.0 mi Calm Calm - N/A   Clear
12:55 AM 24.8 °F - 19.4 °F 80% 30.15 in 10.0 mi Calm Calm - N/A   Clear
1:15 AM 23.0 °F - 17.6 °F 80% 30.15 in 10.0 mi Calm Calm - N/A   Clear
1:35 AM 23.0 °F - 14.0 °F 68% 30.14 in 10.0 mi Calm Calm - N/A   Clear
1:55 AM 23.0 °F - 15.8 °F 74% 30.14 in 10.0 mi Calm Calm - N/A   Clear
2:15 AM 23.0 °F - 17.6 °F 80% 30.14 in 10.0 mi Calm Calm - N/A   Clear
2:35 AM 23.0 °F - 14.0 °F 68% 30.13 in 10.0 mi Calm Calm - N/A   Clear
2:55 AM 21.2 °F - 15.8 °F 80% 30.13 in 10.0 mi Calm Calm - N/A   Clear
3:15 AM 21.2 °F - 14.0 °F 74% 30.12 in 10.0 mi Calm Calm - N/A   Clear
3:35 AM 21.2 °F - 14.0 °F 74% 30.12 in 10.0 mi Calm Calm - N/A   Clear
3:55 AM 21.2 °F - 14.0 °F 74% 30.12 in 10.0 mi Calm Calm - N/A   Clear
4:15 AM 21.2 °F - 15.8 °F 80% 30.11 in 10.0 mi Calm Calm - N/A   Clear
4:35 AM 21.2 °F - 15.8 °F 80% 30.12 in 10.0 mi Calm Calm - N/A   Clear
4:55 AM 21.2 °F - 14.0 °F 74% 30.12 in 10.0 mi Calm Calm - N/A   Clear
5:15 AM 19.4 °F - 14.0 °F 80% 30.11 in 10.0 mi Calm Calm - N/A   Clear
5:35 AM 19.4 °F - 15.8 °F 86% 30.11 in 10.0 mi Calm Calm - N/A   Clear
5:55 AM 19.4 °F - 14.0 °F 80% 30.10 in 10.0 mi Calm Calm - N/A   Clear
6:15 AM 19.4 °F - 15.8 °F 86% 30.10 in 10.0 mi Calm Calm - N/A   Clear
6:35 AM 19.4 °F - 15.8 °F 86% 30.10 in 10.0 mi Calm Calm - N/A   Clear
6:55 AM 19.4 °F - 17.6 °F 93% 30.09 in 10.0 mi Calm Calm - N/A   Clear
7:15 AM 19.4 °F - 15.8 °F 86% 30.09 in 10.0 mi Calm Calm - N/A   Clear
7:35 AM 21.2 °F - 15.8 °F 80% 30.09 in 10.0 mi Calm Calm - N/A   Clear
7:55 AM 23.0 °F - 19.4 °F 86% 30.09 in 10.0 mi Calm Calm - N/A   Clear
8:15 AM 26.6 °F - 17.6 °F 69% 30.09 in 10.0 mi Calm Calm - N/A   Clear
8:35 AM 26.6 °F - 17.6 °F 69% 30.09 in 10.0 mi Calm Calm - N/A   Clear
8:55 AM 28.4 °F - 17.6 °F 64% 30.09 in 10.0 mi Calm Calm - N/A   Clear
9:15 AM 30.2 °F - 19.4 °F 64% 30.09 in 10.0 mi Calm Calm - N/A   Clear
9:35 AM 30.2 °F - 19.4 °F 64% 30.09 in 10.0 mi Calm Calm - N/A   Clear
9:55 AM 32.0 °F - 21.2 °F 64% 30.08 in 10.0 mi Calm Calm - N/A   Clear
10:15 AM 35.6 °F 32.8 °F 19.4 °F 52% 30.08 in 10.0 mi SE 3.5 mph - N/A   Clear
10:35 AM 37.4 °F 32.1 °F 21.2 °F 52% 30.08 in 10.0 mi SSE 6.9 mph - N/A   Clear
10:55 AM 37.4 °F 32.8 °F 21.2 °F 52% 30.07 in 10.0 mi SSE 5.8 mph - N/A   Scattered Clouds
11:15 AM 37.4 °F 32.8 °F 21.2 °F 52% 30.06 in 10.0 mi South 5.8 mph - N/A   Scattered Clouds
11:35 AM 37.4 °F 31.4 °F 19.4 °F 48% 30.06 in 10.0 mi South 8.1 mph - N/A   Scattered Clouds
11:55 AM 37.4 °F 30.8 °F 21.2 °F 52% 30.06 in 10.0 mi SSW 9.2 mph - N/A   Scattered Clouds
12:15 PM 39.2 °F 32.0 °F 21.2 °F 49% 30.05 in 10.0 mi SSW 11.5 mph - N/A   Scattered Clouds
12:35 PM 37.4 °F 30.8 °F 21.2 °F 52% 30.05 in 10.0 mi South 9.2 mph - N/A   Scattered Clouds
12:55 PM 39.2 °F 35.0 °F 19.4 °F 45% 30.03 in 10.0 mi South 5.8 mph - N/A   Clear
1:15 PM 39.2 °F 34.2 °F 21.2 °F 49% 30.02 in 10.0 mi SSE 6.9 mph - N/A   Scattered Clouds
1:35 PM 37.4 °F 32.8 °F 23.0 °F 56% 30.01 in 10.0 mi South 5.8 mph - N/A   Scattered Clouds
1:55 PM 37.4 °F 33.8 °F 23.0 °F 56% 30.00 in 10.0 mi SE 4.6 mph - N/A   Scattered Clouds
2:15 PM 37.4 °F 32.1 °F 26.6 °F 65% 29.98 in 5.0 mi SSE 6.9 mph - N/A   Mostly Cloudy
2:35 PM 37.4 °F 32.8 °F 26.6 °F 65% 29.98 in 7.0 mi SSE 5.8 mph - N/A   Overcast
2:55 PM 37.4 °F 34.9 °F 26.6 °F 65% 29.96 in 10.0 mi SE 3.5 mph - N/A   Scattered Clouds
3:15 PM 35.6 °F - 26.6 °F 70% 29.95 in 7.0 mi Calm Calm - N/A   Mostly Cloudy
3:35 PM 35.6 °F - 26.6 °F 70% 29.94 in 7.0 mi Calm Calm - N/A   Mostly Cloudy
3:55 PM 35.6 °F 31.7 °F 28.4 °F 75% 29.93 in 7.0 mi East 4.6 mph - N/A   Overcast
4:15 PM 35.6 °F 32.8 °F 28.4 °F 75% 29.91 in 5.0 mi ENE 3.5 mph - N/A   Overcast
4:35 PM 35.6 °F 31.7 °F 28.4 °F 75% 29.90 in 5.0 mi ENE 4.6 mph - N/A   Overcast
4:55 PM 35.6 °F 32.8 °F 28.4 °F 75% 29.89 in 10.0 mi NE 3.5 mph - N/A   Mostly Cloudy
5:15 PM 35.6 °F 32.8 °F 28.4 °F 75% 29.88 in 10.0 mi NE 3.5 mph - N/A   Mostly Cloudy
5:35 PM 35.6 °F 32.8 °F 28.4 °F 75% 29.88 in 10.0 mi ENE 3.5 mph - N/A   Overcast
5:55 PM 33.8 °F 29.6 °F 30.2 °F 87% 29.87 in 2.0 mi NE 4.6 mph - N/A   Overcast
6:15 PM 33.8 °F 30.8 °F 30.2 °F 87% 29.89 in 1.5 mi NE 3.5 mph - N/A   Overcast
6:35 PM 33.8 °F 30.8 °F 32.0 °F 93% 29.89 in 1.0 mi ENE 3.5 mph - N/A   Overcast
6:55 PM 32.0 °F 28.7 °F 32.0 °F 100% 29.89 in 0.8 mi East 3.5 mph - N/A   Overcast
7:15 PM 32.0 °F 27.5 °F 32.0 °F 100% 29.89 in 1.0 mi ENE 4.6 mph - N/A   Overcast
7:35 PM 32.0 °F 28.7 °F 32.0 °F 100% 29.89 in 1.8 mi East 3.5 mph - N/A   Overcast
7:55 PM 32.0 °F 28.7 °F 30.2 °F 93% 29.89 in 2.0 mi NE 3.5 mph - 0.01 in   Overcast
8:15 PM 32.0 °F 28.7 °F 30.2 °F 93% 29.89 in 2.0 mi ENE 3.5 mph - N/A   Overcast
8:35 PM 32.0 °F 27.5 °F 30.2 °F 93% 29.89 in 4.0 mi ENE 4.6 mph - N/A   Overcast
8:55 PM 32.0 °F 27.5 °F 30.2 °F 93% 29.89 in 7.0 mi ENE 4.6 mph - N/A   Overcast
9:15 PM 32.0 °F - 30.2 °F 93% 29.89 in 7.0 mi Calm Calm - N/A   Scattered Clouds
9:35 PM 32.0 °F - 30.2 °F 93% 29.89 in 7.0 mi Calm Calm - N/A   Mostly Cloudy
9:55 PM 32.0 °F - 30.2 °F 93% 29.89 in 5.0 mi Calm Calm - N/A   Overcast
10:15 PM 32.0 °F - 30.2 °F 93% 29.90 in 7.0 mi Calm Calm - N/A   Mostly Cloudy
10:35 PM 32.0 °F - 30.2 °F 93% 29.90 in 5.0 mi Calm Calm - N/A   Mostly Cloudy
10:55 PM 32.0 °F - 30.2 °F 93% 29.89 in 5.0 mi Calm Calm - N/A   Overcast
11:15 PM 32.0 °F - 30.2 °F 93% 29.88 in 5.0 mi Calm Calm - N/A   Overcast
11:35 PM 32.0 °F - 30.2 °F 93% 29.88 in 5.0 mi Calm Calm - N/A   Overcast
11:55 PM 32.0 °F - 28.4 °F 87% 29.87 in 7.0 mi Calm Calm - N/A   Overcast